リニア彗星

P/2004 CB ( LINEAR ) 2009

English version
Home page
Total 6,336 html files since Dec. 4, 1995
Updated on October 15, 2008

---------------------------------------------------------------------

・ プロフィール

・ 軌道要素

The following orbital elements are taken from MPC 56803:

Epoch 2009 Mar. 30.0 TT = JDT 2454920.5
T 2009 Apr. 15.8175 TT                                  MPC
q   0.913706             (2000.0)            P               Q
n   0.1957580      Peri.  149.7297      -0.7816137      +0.5465072
a   2.937580       Node    66.4492      -0.6175886      -0.6103724
e   0.688960       Incl.   19.1476      -0.0875469      -0.5733894
P   5.03
From 329 observations 2004 Feb. 3-Aug. 25, mean residual 0".4.

・ 星図

・ 光度変化

        m1 = 17.9 + 5 logΔ + 5 log r(t - 55)

---------------------------------------------------------------------

軌道要素はMPCのEphemerides and Orbital Elementsに掲載されたものです。
星図はステラナビゲータ Ver.8 (アストロアーツ) で作成したものです。
光度グラフはComet for Windowsで作成したものです。

---------------------------------------------------------------------

Copyright(C) 1995-2008 Seiichi Yoshida (comet@aerith.net). All rights reserved.